Tracking 31027 objects as of 19-Jul-2025
HD Live streaming from Space Station
objects crossing your sky now

STARLINK-5440

Track STARLINK-5440 now!
10-day predictions
STARLINK-5440 is classified as:


NORAD ID: 54785
Int'l Code: 2022-175AD
Perigee: 546.2 km
Apogee: 547.6 km
Inclination: 53.2 °
Period: 95.4 minutes
Semi major axis: 6917 km
RCS: Unknown
Launch date: December 17, 2022
Source: United States (US)
Launch site: AIR FORCE EASTERN TEST RANGE (AFETR)
Your satellite tracking list
STARLINK-32625
Track 1 satellite(s)




NASA's NSSDC Master Catalog

Two Line Element Set (TLE):
1 54785U 22175AD  25199.60477827  .00000753  00000-0  65385-4 0  9999
2 54785  53.2182 319.8419 0001060  80.9955 279.1157 15.08837412145359
Source of the keplerian elements: AFSPC